{"data":{"norad_id":56508,"epoch":"2026-05-24T23:47:51.319680Z","epoch_age_seconds":69554,"freshness":"FRESH","line1":"1 56508U 23065F   26144.99156620  .00001162  00000+0  51748-4 0  9993","line2":"2 56508  43.0032 141.1808 0001493 264.5482  95.5200 15.27578951168274","mean_motion":15.27578951,"eccentricity":0.0001493,"inclination_deg":43.0032,"raan_deg":141.1808,"arg_perigee_deg":264.5482,"mean_anomaly_deg":95.52,"bstar":5.1748e-5,"rev_number":16827,"period_min":94.26681344734,"perigee_km":482.02786157172,"apogee_km":484.07661267793,"semimajor_km":6861.1892371248,"source":"CELESTRAK","updated_at":"2026-05-25T13:38:18.078526Z"}}